This demonstration page uses our WeatherBlox Daily Observations layout. Learn more.

Hourly Observations for January 30, 2016

Temp ( °F °C ) Dew Point ( °F °C ) Humidity (%) Winds ( mph kmh ) Pressure ( in mb ) Visibility ( mi km ) Precip ( " mm )
12:15 am 00:15 Clear 32 0 30 -1 93 93 Calm 29.83 1010 10 16.09344 0 0
12:35 am 00:35 Clear 32 0 28 -2 87 87 SSW 5 7 29.83 1010 10 16.09344 0 0
12:55 am 00:55 Clear 34 1 30 -1 87 87 SW 7 11 29.77 1008 10 16.09344 0 0
1:15 am 01:15 Clear 34 1 30 -1 87 87 WSW 3 6 29.8 1009 10 16.09344 0 0
1:35 am 01:35 Clear 36 2 32 0 87 87 SW 7 11 29.77 1008 10 16.09344 0 0
1:55 am 01:55 Clear 34 1 30 -1 87 87 SW 7 11 29.77 1008 10 16.09344 0 0
2:15 am 02:15 Clear 36 2 30 -1 81 81 SW 8 13 29.77 1008 10 16.09344 0 0
2:35 am 02:35 Clear 34 1 30 -1 87 87 SW 7 11 29.77 1008 10 16.09344 0 0
2:55 am 02:55 Clear 34 1 32 0 93 93 SW 8 13 29.77 1008 10 16.09344 0 0
3:15 am 03:15 Clear 37 3 32 0 81 81 WSW 8 13 29.77 1008 10 16.09344 0 0
3:35 am 03:35 Clear 37 3 32 0 81 81 WSW 6 9 29.77 1008 10 16.09344 0 0
3:55 am 03:55 Clear 36 2 32 0 87 87 WSW 3 6 29.77 1008 10 16.09344 0 0
4:15 am 04:15 Clear 37 3 32 0 81 81 WSW 6 9 29.77 1008 10 16.09344 0 0
4:35 am 04:35 Clear 36 2 32 0 87 87 WSW 6 9 29.77 1008 10 16.09344 0 0
4:55 am 04:55 Clear 36 2 32 0 87 87 WSW 6 9 29.77 1008 10 16.09344 0 0
5:15 am 05:15 Clear 37 3 32 0 81 81 SW 8 13 29.71 1006 10 16.09344 0 0
5:35 am 05:35 Clear 36 2 30 -1 81 81 SW 7 11 29.74 1007 10 16.09344 0 0
5:55 am 05:55 Clear 36 2 32 0 87 87 SW 8 13 29.71 1006 10 16.09344 0 0
6:15 am 06:15 Clear 36 2 32 0 87 87 SW 8 13 29.71 1006 10 16.09344 0 0
6:35 am 06:35 Clear 37 3 32 0 81 81 SSW 9 15 29.68 1005 10 16.09344 0 0
6:55 am 06:55 Clear 36 2 32 0 87 87 SW 12 19 29.71 1006 10 16.09344 0 0
7:15 am 07:15 Clear 36 2 32 0 87 87 SW 9 15 29.71 1006 10 16.09344 0 0
7:35 am 07:35 Clear 36 2 32 0 87 87 SW 7 11 29.71 1006 10 16.09344 0 0
7:55 am 07:55 Sunny 36 2 32 0 87 87 SW 7 11 29.71 1006 10 16.09344 0 0
8:15 am 08:15 Sunny 36 2 32 0 87 87 SW 10 17 29.71 1006 10 16.09344 0 0
8:35 am 08:35 Sunny 36 2 32 0 87 87 SW 9 15 29.71 1006 10 16.09344 0 0
8:55 am 08:55 Sunny 36 2 32 0 87 87 SW 6 9 29.71 1006 10 16.09344 0 0
9:15 am 09:15 Sunny 37 3 32 0 81 81 SW 8 13 29.68 1005 10 16.09344 0 0
9:35 am 09:35 Sunny 37 3 32 0 81 81 SW 10 17 29.65 1004 10 16.09344 0 0
9:55 am 09:55 Sunny 37 3 32 0 81 81 SW 12 19 29.65 1004 10 16.09344 0 0
10:15 am 10:15 Sunny 39 4 34 1 81 81 SSW 10 17 29.65 1004 10 16.09344 0 0
10:35 am 10:35 Sunny 41 5 34 1 76 76 SSW 12 19 29.65 1004 10 16.09344 0 0
10:55 am 10:55 Sunny 43 6 34 1 71 71 SSW 10 17 29.62 1003 10 16.09344 0 0
11:15 am 11:15 Sunny 43 6 36 2 76 76 SSW 9 15 29.62 1003 10 16.09344 0 0
11:35 am 11:35 Sunny 46 8 36 2 66 66 SSW 14 22 29.59 1002 10 16.09344 0 0
11:55 am 11:55 Sunny 52 11 34 1 50 50 SSW 17 28 29.56 1001 10 16.09344 0 0
12:15 pm 12:15 Sunny 54 12 34 1 47 47 SSW 21 33 29.53 1000 10 16.09344 0 0
12:35 pm 12:35 Sunny 54 12 34 1 47 47 SSW 22 35 29.5 999 10 16.09344 0 0
12:55 pm 12:55 Sunny 54 12 34 1 47 47 SSW 16 26 29.5 999 10 16.09344 0 0
1:15 pm 13:15 Sunny 54 12 34 1 47 47 S 15 24 29.5 999 10 16.09344 0 0
1:35 pm 13:35 Sunny 55 13 34 1 44 44 S 17 28 29.47 998 10 16.09344 0 0
1:55 pm 13:55 Sunny 55 13 34 1 44 44 SSW 13 20 29.47 998 10 16.09344 0 0
2:15 pm 14:15 Sunny 55 13 34 1 44 44 SSW 17 28 29.44 997 10 16.09344 0 0
2:35 pm 14:35 Sunny 55 13 34 1 44 44 S 15 24 29.44 997 10 16.09344 0 0
2:55 pm 14:55 Sunny 55 13 34 1 44 44 S 12 19 29.44 997 10 16.09344 0 0
3:15 pm 15:15 Sunny 54 12 34 1 47 47 S 3 6 29.44 997 10 16.09344 0 0
3:35 pm 15:35 Mostly Cloudy 54 12 34 1 47 47 Calm 29.47 998 10 16.09344 0 0
3:55 pm 15:55 Partly Cloudy 55 13 34 1 44 44 SW 3 6 29.44 997 10 16.09344 0 0
4:15 pm 16:15 Sunny 54 12 34 1 47 47 SW 6 9 29.47 998 10 16.09344 0 0
4:35 pm 16:35 Sunny 54 12 34 1 47 47 Calm 29.47 998 10 16.09344 0 0
4:55 pm 16:55 Sunny 54 12 34 1 47 47 Calm 29.44 997 10 16.09344 0 0
5:15 pm 17:15 Sunny 52 11 34 1 50 50 Calm 29.5 999 10 16.09344 0 0
5:35 pm 17:35 Sunny 50 10 34 1 54 54 NNW 3 6 29.53 1000 10 16.09344 0 0
5:55 pm 17:55 Clear 48 9 34 1 58 58 NNW 5 7 29.53 1000 10 16.09344 0 0
6:15 pm 18:15 Clear 45 7 37 3 76 76 N 8 13 29.59 1002 10 16.09344 0 0
6:35 pm 18:35 Clear 41 5 36 2 81 81 NNE 7 11 29.62 1003 10 16.09344 0 0
6:55 pm 18:55 Clear 41 5 36 2 81 81 N 7 11 29.62 1003 10 16.09344 0 0
7:15 pm 19:15 Clear 37 3 34 1 87 87 N 7 11 29.62 1003 10 16.09344 0 0
7:35 pm 19:35 Clear 39 4 34 1 81 81 N 10 17 29.62 1003 10 16.09344 0 0
7:55 pm 19:55 Clear 37 3 34 1 87 87 NNE 13 20 29.62 1003 10 16.09344 0 0
8:15 pm 20:15 Clear 37 3 32 0 81 81 N 13 20 29.62 1003 10 16.09344 0 0
8:35 pm 20:35 Clear 37 3 32 0 81 81 N 12 19 29.65 1004 10 16.09344 0 0
8:55 pm 20:55 Clear 37 3 32 0 81 81 N 10 17 29.65 1004 10 16.09344 0 0
9:15 pm 21:15 Clear 36 2 32 0 87 87 N 8 13 29.71 1006 10 16.09344 0 0
9:35 pm 21:35 Clear 36 2 32 0 87 87 N 8 13 29.71 1006 10 16.09344 0 0
9:55 pm 21:55 Clear 36 2 32 0 87 87 N 10 17 29.71 1006 10 16.09344 0 0
10:15 pm 22:15 Mostly Cloudy 36 2 32 0 87 87 N 8 13 29.71 1006 10 16.09344 0 0
10:35 pm 22:35 Cloudy 37 3 34 1 87 87 N 10 17 29.71 1006 10 16.09344 0 0
10:55 pm 22:55 Cloudy 37 3 34 1 87 87 N 10 17 29.68 1005 10 16.09344 0 0
11:15 pm 23:15 Cloudy 37 3 32 0 81 81 N 10 17 29.71 1006 10 16.09344 0 0
11:35 pm 23:35 Cloudy 37 3 32 0 81 81 NNW 7 11 29.77 1008 10 16.09344 0 0
11:55 pm 23:55 Cloudy 37 3 32 0 81 81 N 12 19 29.77 1008 10 16.09344 0 0

Powered by AerisWeather